Weather History for Denton, TX

Change the Weather History Date:

Wednesday, July 24, 2013

  Actual Average Record
Temperature  
Mean Temperature 84 °F -  
Max Temperature 96 °F 96 °F 105 °F (1998)
Min Temperature 73 °F 72 °F 64 °F (2000)
Cooling Degree Days 20    
Growing Degree Days 34 (Base 50)    
Moisture  
Dew Point 67 °F    
Average Humidity 61    
Maximum Humidity 82    
Minimum Humidity 36    
Precipitation  
Precipitation 0.00 in - - ()
Sea Level Pressure  
Sea Level Pressure 29.92 in    
Wind  
Wind Speed 9 mph (ESE)    
Max Wind Speed 25 mph    
Max Gust Speed 34 mph    
Visibility 10 miles    
Events Rain    
Averages and records for this station are not official NWS values.
T = Trace of Precipitation, MM = Missing Value Source: NWS Daily Summary

Daily Weather History Graph

Daily Weather History Graph

Search for Another Location

Airport:

Trip Planner

Search our weather history database for the weather conditions in past years. The results will help you decide how hot, cold, wet, or windy it might be!

Date:

Astronomy

Jul. 24, 2013 Rise Set
Actual Time 6:36 AM CDT 8:33 PM CDT
Civil Twilight 6:08 AM CDT 9:01 PM CDT
Nautical Twilight 5:35 AM CDT 9:34 PM CDT
Astronomical Twilight 4:59 AM CDT 10:10 PM CDT
Moon 9:52 PM CDT (7/24) 8:48 AM CDT (7/24)
Length of Visible Light 14h 52m
Length of Day
13h 57m
Waning Gibbous, 94% of the Moon is Illuminated
Jul 24
Waning Gibbous
Jul 29
Last Quarter
Aug 6
New
Aug 14
First Quarter
Aug 20
Full

Hourly Weather History & Observations

Time (CDT) Temp. Heat Index Dew Point Humidity Pressure Visibility Wind Dir Wind Speed Gust Speed Precip Events Conditions
12:53 AM 80.1 °F 82.1 °F 66.0 °F 62% 29.83 in 10.0 mi South 8.1 mph - N/A   Clear
1:53 AM 80.1 °F 82.1 °F 66.0 °F 62% 29.83 in 10.0 mi South 3.5 mph - N/A   Clear
2:53 AM 79.0 °F - 64.9 °F 62% 29.85 in 10.0 mi South 3.5 mph - N/A   Clear
3:53 AM 79.0 °F - 66.0 °F 64% 29.84 in 10.0 mi Calm Calm - N/A   Clear
4:53 AM 78.1 °F - 66.9 °F 68% 29.88 in 10.0 mi South 4.6 mph - N/A   Mostly Cloudy
5:53 AM 77.0 °F - 66.9 °F 71% 29.95 in 10.0 mi NE 23.0 mph 34.5 mph N/A   Overcast
6:53 AM 73.9 °F - 66.9 °F 79% 29.94 in 10.0 mi East 12.7 mph - 0.00 in   Clear
7:53 AM 75.0 °F - 66.9 °F 76% 29.94 in 10.0 mi SE 11.5 mph - N/A   Clear
8:53 AM 75.0 °F - 66.9 °F 76% 30.06 in 10.0 mi North 25.3 mph 32.2 mph N/A   Mostly Cloudy
9:53 AM 75.9 °F - 66.9 °F 74% 30.03 in 10.0 mi East 6.9 mph - 0.00 in   Mostly Cloudy
10:53 AM 75.0 °F - 69.1 °F 82% 30.01 in 10.0 mi SSW 4.6 mph - 0.00 in Rain Light Rain
11:53 AM 79.0 °F - 68.0 °F 69% 29.89 in 10.0 mi South 5.8 mph - 0.00 in   Partly Cloudy
12:53 PM 88.0 °F 90.3 °F 66.0 °F 48% 29.91 in 10.0 mi SSW 8.1 mph - N/A   Clear
1:53 PM 90.0 °F 93.6 °F 68.0 °F 48% 29.91 in 10.0 mi WSW 8.1 mph - N/A   Clear
2:53 PM 91.9 °F 95.4 °F 66.9 °F 44% 29.90 in 10.0 mi SSW 9.2 mph - N/A   Mostly Cloudy
3:53 PM 95.0 °F 97.4 °F 64.9 °F 37% 29.89 in 10.0 mi NNE 5.8 mph - N/A   Mostly Cloudy
4:53 PM 96.1 °F 98.8 °F 64.9 °F 36% 29.87 in 10.0 mi NE 11.5 mph - N/A   Clear
5:53 PM 91.9 °F 95.4 °F 66.9 °F 44% 29.88 in 10.0 mi NE 13.8 mph - N/A   Clear
6:53 PM 89.1 °F 92.1 °F 66.9 °F 48% 29.89 in 10.0 mi NE 11.5 mph 19.6 mph N/A   Clear
7:53 PM 86.0 °F 87.6 °F 64.9 °F 49% 29.90 in 10.0 mi NNE 9.2 mph - N/A   Clear
8:53 PM 84.0 °F 87.8 °F 69.1 °F 61% 29.92 in 10.0 mi ENE 10.4 mph - N/A   Clear
9:53 PM 82.0 °F 85.5 °F 69.1 °F 65% 29.94 in 10.0 mi ENE 11.5 mph - N/A   Clear
10:53 PM 80.1 °F 82.9 °F 69.1 °F 69% 29.97 in 10.0 mi ENE 9.2 mph - N/A   Clear
11:53 PM 79.0 °F - 70.0 °F 74% 29.98 in 10.0 mi ENE 6.9 mph - N/A   Clear